Location: Castelbiague
(43.0361°N, 0.9246°E)
Time: 10:27:01
(UTC+00:00)

Cosmos 2278 Rocket - Pass Details

Date: 17 June 2021
Orbit: 840 x 847 km, 71.0° (Epoch: 01 August)

Event Time Altitude Azimuth Distance (km) Brightness Sun altitude
Rises 23:36:40 0° 330° (NNW) 3,410 6.4 -23.4°
Reaches altitude 10° 23:39:11 10° 325° (NW) 2,472 5.4 -23.4°
Maximum altitude 23:44:37 49° 252° (WSW) 1,079 2.6 -23.5°
Enters shadow 23:45:30 45° 224° (SW) 1,136 2.5 -23.5°
